Zurück zum Katalog

SL-3 R/B

AktivPO
NORAD 4420·ROCKET BODY·🇷🇺 Russia

Gestartet Jun 23, 1970 von Plesetsk Cosmodrome

Loading…

Nächste Überflüge (nächste 24 Stunden)

TLE

AktuellSource: Space-Track

Epoche: Sep 14, 2026, 07:57 UTC

1 04420U 70047B   26257.33159376 -.00000027  00000-0 -20773-4 0  9991
2 04420  81.2268 269.6280 0087292  17.3685 343.0440 14.12639752894605

Verfolge SL-3 R/B in Echtzeit mit AllMySat

Download on the App Store